Home > Weather > Helmstedt > Past weeks

Flag for Germany Past Weather in Helmstedt, Lower Saxony, Germany — Yesterday and Last 2 Weeks

Now
61 °F

Sunny.


Feels Like: 61 °F
Forecast: 55 / 70 °F
Wind: 7 mph from East

Location: Braunschweig Wolfsburg

Current Time: Jun 28, 2016 at 10:44:20 PM

Latest Report: Jun 28, 2016 at 9:50 PM


Visibility: 10 mi

Pressure: 29.98 "Hg

Humidity: 68%

Dew Point: 50 °F

Location of HelmstedtLocation

Past Weather in Helmstedt — Graph

°F

Helmstedt Temperature Yesterday

Maximum temperature yesterday: 72 °F (at 3:50 PM)
Minimum temperature yesterday: 57 °F (at 6:50 AM)
Average temperature yesterday: 66 °F

High & Low Weather Summary for the Past Weeks

 TemperatureHumidityPressure
High90 °F (Jun 23, 3:50 PM)100% (Jun 13, 9:50 PM)30.21 "Hg (Jun 13, 9:50 PM)
Low50 °F (Jun 20, 6:50 AM)38% (Jun 23, 3:50 PM)29.47 "Hg (Jun 14, 2:50 PM)
Average67 °F69%29.91 "Hg
* Reported Jun 13 9:20 PM — Jun 28 9:20 PM, Helmstedt, Weather by CustomWeather, © 2016

Note: Actual official high and low records may vary slightly from our data, if they occured in-between our weather recording intervals... More about our weather records

Advertising

Helmstedt Weather History for the Previous 24 Hours

Scroll right to see more
 ConditionsComfort  
Time TempWeatherWind HumidityBarometerVisibility
9:20 PM
Tue, Jun 28
63 °FSunny.5 mph64%29.98 "Hg10 mi
8:50 PM64 °FSunny.5 mph60%29.98 "Hg10 mi
8:20 PM66 °FSunny.3 mph56%29.98 "Hg10 mi
7:50 PM68 °FSunny.1 mph49%29.98 "Hg10 mi
7:20 PM66 °FSunny.3 mph52%30.01 "Hg10 mi
6:50 PM68 °FPassing clouds.5 mph46%30.01 "HgN/A
6:20 PM70 °FPassing clouds.5 mph43%30.01 "HgN/A
5:50 PM70 °FSunny.3 mph43%30.01 "Hg10 mi
5:20 PM68 °FPassing clouds.6 mph46%30.04 "HgN/A
4:50 PM68 °FPassing clouds.5 mph46%30.04 "HgN/A
4:20 PM68 °FScattered clouds.6 mph43%30.04 "HgN/A
3:50 PM66 °FPassing clouds.7 mph49%30.04 "HgN/A
3:20 PM66 °FScattered clouds.6 mph49%30.04 "HgN/A
2:50 PM66 °FPassing clouds.6 mph49%30.07 "HgN/A
2:20 PM66 °FScattered clouds.7 mph52%30.07 "HgN/A
1:50 PM64 °FPartly sunny.7 mph49%30.07 "HgN/A
1:20 PM64 °FScattered clouds.7 mph49%30.09 "HgN/A
12:50 PM66 °FScattered clouds.9 mph52%30.09 "HgN/A
12:20 PM64 °FScattered clouds.9 mph52%30.09 "HgN/A
11:50 AM63 °FPartly sunny.7 mph59%30.09 "HgN/A
11:20 AM63 °FPartly sunny.8 mph56%30.09 "HgN/A
10:50 AM63 °FScattered clouds.8 mph59%30.09 "HgN/A
10:20 AM63 °FScattered clouds.9 mph59%30.09 "HgN/A
9:50 AM63 °FScattered clouds.8 mph68%30.09 "HgN/A
9:20 AM59 °FScattered clouds.9 mph77%30.09 "HgN/A
8:50 AM59 °FBroken clouds.9 mph82%30.09 "HgN/A
8:20 AM57 °FPartly sunny.8 mph88%30.07 "HgN/A
7:50 AM55 °FPassing clouds.6 mph94%30.07 "HgN/A
7:20 AM55 °FPassing clouds.5 mph94%30.07 "HgN/A
6:50 AM55 °FScattered clouds.6 mph94%30.07 "HgN/A
Weather by CustomWeather, © 2016

See weather overviewHow to use our weather pages